TimeCST,TemperatureF,Dew PointF,Humidity,Sea Level PressureIn,VisibilityMPH,Wind Direction,Wind SpeedMPH,Gust SpeedMPH,PrecipitationIn,Events,Conditions,WindDirDegrees,DateUTC
12:10 AM,39.2,30.2,70,29.87,10.0,NNW,8.1,-,N/A,,Overcast,340,2013-01-12 06:10:00
12:30 AM,39.2,30.2,70,29.88,10.0,North,8.1,-,N/A,,Mostly Cloudy,350,2013-01-12 06:30:00
12:50 AM,39.2,30.2,70,29.89,10.0,NNW,8.1,-,N/A,,Mostly Cloudy,340,2013-01-12 06:50:00
1:10 AM,39.2,28.4,65,29.91,10.0,North,13.8,-,N/A,,Mostly Cloudy,360,2013-01-12 07:10:00
1:30 AM,37.4,28.4,70,29.92,10.0,North,13.8,18.4,N/A,,Mostly Cloudy,350,2013-01-12 07:30:00
1:50 AM,37.4,28.4,70,29.93,10.0,NNW,9.2,-,N/A,,Scattered Clouds,340,2013-01-12 07:50:00
2:10 AM,37.4,28.4,70,29.95,10.0,North,10.4,-,N/A,,Mostly Cloudy,350,2013-01-12 08:10:00
2:30 AM,35.6,28.4,75,29.96,10.0,North,15.0,-,N/A,,Mostly Cloudy,360,2013-01-12 08:30:00
2:50 AM,35.6,26.6,70,29.96,10.0,North,15.0,-,N/A,,Overcast,360,2013-01-12 08:50:00
3:10 AM,33.8,26.6,75,29.96,10.0,North,16.1,-,N/A,,Overcast,10,2013-01-12 09:10:00
3:30 AM,32.0,24.8,75,29.97,10.0,NNE,18.4,25.3,N/A,,Overcast,20,2013-01-12 09:30:00
3:50 AM,32.0,24.8,75,29.97,10.0,North,18.4,23.0,N/A,,Overcast,10,2013-01-12 09:50:00
4:10 AM,32.0,24.8,75,29.96,10.0,North,18.4,26.5,N/A,,Overcast,10,2013-01-12 10:10:00
4:30 AM,32.0,24.8,75,29.97,10.0,North,17.3,23.0,N/A,,Overcast,10,2013-01-12 10:30:00
4:50 AM,32.0,24.8,75,29.96,10.0,North,19.6,23.0,N/A,,Overcast,10,2013-01-12 10:50:00
5:10 AM,32.0,24.8,75,29.97,10.0,North,19.6,24.2,N/A,,Overcast,360,2013-01-12 11:10:00
5:30 AM,32.0,23.0,69,29.97,10.0,North,17.3,20.7,N/A,,Overcast,10,2013-01-12 11:30:00
5:50 AM,32.0,23.0,69,29.99,10.0,NNE,12.7,21.9,N/A,,Overcast,20,2013-01-12 11:50:00
6:10 AM,32.0,19.4,60,30.00,10.0,North,16.1,20.7,N/A,,Overcast,10,2013-01-12 12:10:00
6:30 AM,32.0,19.4,60,30.02,10.0,North,13.8,-,N/A,,Mostly Cloudy,360,2013-01-12 12:30:00
6:50 AM,30.2,17.6,60,30.01,10.0,North,12.7,-,N/A,,Overcast,360,2013-01-12 12:50:00
7:10 AM,30.2,17.6,60,30.02,10.0,North,13.8,-,N/A,,Overcast,360,2013-01-12 13:10:00
7:30 AM,30.2,17.6,60,30.03,10.0,NNE,12.7,19.6,N/A,,Overcast,20,2013-01-12 13:30:00
7:50 AM,30.2,15.8,55,30.04,10.0,North,17.3,21.9,N/A,,Overcast,10,2013-01-12 13:50:00
8:10 AM,28.4,14.0,55,30.05,10.0,North,17.3,25.3,N/A,,Overcast,10,2013-01-12 14:10:00
8:30 AM,28.4,15.8,59,30.08,10.0,North,17.3,20.7,N/A,,Overcast,10,2013-01-12 14:30:00
8:45 AM,28.4,15.8,59,30.07,10.0,North,17.3,-,N/A,,Overcast,10,2013-01-12 14:45:00
9:10 AM,28.4,14.0,55,30.05,10.0,North,19.6,25.3,N/A,,Overcast,10,2013-01-12 15:10:00
9:30 AM,28.4,14.0,55,30.04,10.0,North,16.1,26.5,N/A,,Overcast,360,2013-01-12 15:30:00
9:50 AM,28.4,15.8,59,30.06,10.0,North,16.1,23.0,N/A,,Overcast,10,2013-01-12 15:50:00
10:10 AM,28.4,12.2,51,30.07,10.0,North,16.1,-,N/A,,Overcast,10,2013-01-12 16:10:00
10:30 AM,28.4,12.2,51,30.06,10.0,NNE,19.6,25.3,N/A,,Overcast,20,2013-01-12 16:30:00
10:50 AM,28.4,12.2,51,30.06,10.0,North,19.6,25.3,N/A,,Overcast,10,2013-01-12 16:50:00
11:10 AM,28.4,10.4,47,30.05,10.0,North,18.4,26.5,N/A,,Overcast,360,2013-01-12 17:10:00
11:35 AM,28.4,10.4,47,30.06,10.0,North,16.1,29.9,N/A,,Overcast,10,2013-01-12 17:35:00
11:50 AM,28.4,10.4,47,30.05,10.0,North,16.1,-,N/A,,Overcast,360,2013-01-12 17:50:00
12:30 PM,30.2,8.6,40,30.01,10.0,NNE,19.6,28.8,N/A,,Overcast,20,2013-01-12 18:30:00
12:50 PM,28.4,8.6,43,30.03,10.0,NNE,17.3,21.9,N/A,,Overcast,20,2013-01-12 18:50:00
1:10 PM,28.4,10.4,47,30.02,10.0,North,15.0,20.7,N/A,,Overcast,360,2013-01-12 19:10:00
1:30 PM,30.2,10.4,44,30.00,10.0,North,17.3,20.7,N/A,,Overcast,360,2013-01-12 19:30:00
1:50 PM,30.2,10.4,44,30.01,10.0,North,16.1,-,N/A,,Overcast,10,2013-01-12 19:50:00
2:10 PM,32.0,12.2,44,30.00,10.0,North,16.1,-,N/A,,Mostly Cloudy,10,2013-01-12 20:10:00
2:30 PM,30.2,10.4,44,30.01,10.0,North,15.0,-,N/A,,Overcast,350,2013-01-12 20:30:00
2:50 PM,32.0,10.4,41,30.01,10.0,North,20.7,-,N/A,,Mostly Cloudy,360,2013-01-12 20:50:00
3:10 PM,32.0,8.6,38,30.03,10.0,North,19.6,24.2,N/A,,Mostly Cloudy,10,2013-01-12 21:10:00
3:30 PM,32.0,10.4,41,30.04,10.0,North,12.7,21.9,N/A,,Overcast,10,2013-01-12 21:30:00
3:50 PM,30.2,10.4,44,30.05,10.0,North,17.3,21.9,N/A,,Overcast,360,2013-01-12 21:50:00
4:10 PM,28.4,8.6,43,30.03,10.0,North,16.1,-,N/A,,Mostly Cloudy,360,2013-01-12 22:10:00
4:30 PM,28.4,10.4,47,30.05,10.0,North,15.0,-,N/A,,Scattered Clouds,360,2013-01-12 22:30:00
4:50 PM,28.4,10.4,47,30.07,10.0,NNE,12.7,18.4,N/A,,Mostly Cloudy,20,2013-01-12 22:50:00
5:10 PM,28.4,10.4,47,30.04,10.0,North,16.1,23.0,N/A,,Overcast,360,2013-01-12 23:10:00
5:30 PM,28.4,10.4,47,30.06,10.0,North,12.7,-,N/A,,Overcast,10,2013-01-12 23:30:00
6:10 PM,28.4,10.4,47,30.04,10.0,North,19.6,24.2,N/A,,Overcast,360,2013-01-13 00:10:00
6:30 PM,26.6,15.8,64,30.05,10.0,North,18.4,21.9,N/A,,Overcast,350,2013-01-13 00:30:00
6:50 PM,24.8,17.6,74,30.07,10.0,North,17.3,24.2,N/A,,Overcast,360,2013-01-13 00:50:00
7:10 PM,24.8,17.6,74,30.06,10.0,North,16.1,25.3,N/A,,Overcast,360,2013-01-13 01:10:00
7:30 PM,24.8,17.6,74,30.09,10.0,North,16.1,23.0,N/A,,Overcast,360,2013-01-13 01:30:00
7:45 PM,24.8,17.6,74,30.08,10.0,North,15.0,-,N/A,,Overcast,360,2013-01-13 01:45:00
8:10 PM,24.8,17.6,74,30.09,10.0,North,12.7,21.9,N/A,,Overcast,360,2013-01-13 02:10:00
8:30 PM,24.8,17.6,74,30.09,10.0,North,12.7,-,N/A,,Overcast,360,2013-01-13 02:30:00
8:50 PM,24.8,17.6,74,30.10,10.0,North,12.7,-,N/A,,Overcast,360,2013-01-13 02:50:00
9:10 PM,24.8,15.8,69,30.10,10.0,North,12.7,18.4,N/A,,Overcast,350,2013-01-13 03:10:00
9:30 PM,24.8,12.2,59,30.10,10.0,North,16.1,21.9,N/A,,Overcast,360,2013-01-13 03:30:00
9:50 PM,24.8,10.4,54,30.11,10.0,North,19.6,25.3,N/A,,Overcast,10,2013-01-13 03:50:00
10:10 PM,24.8,10.4,54,30.12,10.0,North,20.7,25.3,N/A,,Overcast,10,2013-01-13 04:10:00
10:30 PM,24.8,10.4,54,30.11,10.0,North,17.3,24.2,N/A,,Overcast,360,2013-01-13 04:30:00
10:50 PM,23.0,10.4,59,30.12,10.0,North,17.3,24.2,N/A,,Overcast,360,2013-01-13 04:50:00
11:10 PM,23.0,10.4,59,30.14,10.0,North,11.5,-,N/A,,Overcast,360,2013-01-13 05:10:00
11:30 PM,23.0,10.4,59,30.13,10.0,North,15.0,18.4,N/A,,Overcast,350,2013-01-13 05:30:00